This is the latest recevied weather packets stored in our database for station/object KI6AOK. If no packets are shown the sender has not sent any weather packets the latest 10 day(s).
| Time | Temp. | Humidity | Pressure | Rain* | Wind** | Luminosity | Snow |
|---|---|---|---|---|---|---|---|
| 1777832852 | 18.89° C | 66% | 1014.1 hPa | 0 mm | - | 337 W/m² | - |
| 1777832551 | 18.89° C | 66% | 1014.2 hPa | 0 mm | - | 296 W/m² | - |
| 1777832247 | 18.33° C | 67% | 1014.2 hPa | 0 mm | - | 288 W/m² | - |
| 1777831944 | 18.89° C | 65% | 1014.3 hPa | 0 mm | - | 252 W/m² | - |
| 1777831640 | 18.89° C | 66% | 1014.2 hPa | 0 mm | - | 271 W/m² | - |
| 1777831339 | 18.89° C | 65% | 1014.3 hPa | 0 mm | - | 239 W/m² | - |
| 1777831035 | 18.89° C | 67% | 1014.2 hPa | 0 mm | - | 227 W/m² | - |
| 1777830734 | 18.33° C | 68% | 1014.5 hPa | 0 mm | - | 236 W/m² | - |
| 1777830429 | 18.33° C | 67% | 1014.2 hPa | 0 mm | - | 247 W/m² | - |
| 1777830127 | 18.33° C | 68% | 1014.3 hPa | 0 mm | - | 213 W/m² | - |
| 1777829822 | 17.78° C | 69% | 1014.3 hPa | 0 mm | - | 204 W/m² | - |
| 1777829518 | 18.33° C | 68% | 1014.1 hPa | 0 mm | - | 222 W/m² | - |
| 1777829215 | 18.33° C | 68% | 1014.2 hPa | 0 mm | - | 243 W/m² | - |
| 1777828913 | 18.33° C | 69% | 1014.2 hPa | 0 mm | - | 242 W/m² | - |
| 1777828609 | 17.78° C | 70% | 1014 hPa | 0 mm | - | 232 W/m² | - |
| 1777828307 | 17.78° C | 70% | 1014.2 hPa | 0 mm | - | 226 W/m² | - |
| 1777828003 | 17.78° C | 71% | 1014.2 hPa | 0 mm | - | 239 W/m² | - |
| 1777827700 | 17.78° C | 72% | 1014.3 hPa | 0 mm | - | 264 W/m² | - |
| 1777827397 | 17.78° C | 72% | 1014.2 hPa | 0 mm | - | 252 W/m² | - |
| 1777827093 | 17.22° C | 74% | 1014.1 hPa | 0 mm | - | 223 W/m² | - |
| 1777826790 | 17.22° C | 72% | 1014.2 hPa | 0 mm | - | 263 W/m² | - |
| 1777826487 | 17.22° C | 73% | 1014.3 hPa | 0 mm | - | 233 W/m² | - |
| 1777826184 | 17.22° C | 71% | 1014 hPa | 0 mm | - | 237 W/m² | - |
| 1777825881 | 17.22° C | 72% | 1014 hPa | 0 mm | - | 234 W/m² | - |
| 1777825578 | 17.22° C | 72% | 1013.9 hPa | 0 mm | - | 220 W/m² | - |
* Rain latest hour (hover to see other rain measurements)
** Current wind speed in m/s (hover to see current wind gust speed)